ASA829 KJFK-PHNL

Flight info

Callsign ASA829
Flight time N/A
Altitude 36000
Route DEEZZ6 CANDR J60 DJB JOT LNK DVV/N0475F380 DTA MVA OAK BEBOP R464 BARAZ/N0459F400 R464 BITTA MAGGI3
Aircraft A332/H-SDE3GHIJ2J3J5M1RVWXY/LB2D1

Departure

Time N/A
Airport John F. Kennedy International Airport (KJFK)

Arrival

Time 2026-05-04 17:36
Airport Daniel K. Inouye International Airport (PHNL)
Time Latitude Longitude Altitude Speed Heading
2026-05-04 16:11 26.46563 -150.56554 36214 ft 423 kts 240°
2026-05-04 16:11 26.44993 -150.59328 36213 ft 423 kts 240°
2026-05-04 16:12 26.35581 -150.75920 36218 ft 423 kts 240°
2026-05-04 16:13 26.29284 -150.86987 36216 ft 423 kts 240°
2026-05-04 16:14 26.23002 -150.98002 36212 ft 422 kts 240°
2026-05-04 16:16 26.15133 -151.11760 36212 ft 423 kts 240°
2026-05-04 16:17 26.07234 -151.25530 36214 ft 422 kts 240°
2026-05-04 16:18 26.00910 -151.36525 36211 ft 422 kts 240°
2026-05-04 16:19 25.93015 -151.50215 36193 ft 422 kts 240°
2026-05-04 16:20 25.85116 -151.63869 36213 ft 421 kts 240°
2026-05-04 16:22 25.77183 -151.77545 36199 ft 421 kts 240°
2026-05-04 16:23 25.67664 -151.93899 36208 ft 422 kts 240°
2026-05-04 16:25 25.58123 -152.10233 36195 ft 422 kts 240°
2026-05-04 16:26 25.46972 -152.29253 36199 ft 421 kts 240°
2026-05-04 16:28 25.38985 -152.42828 36186 ft 421 kts 240°
2026-05-04 16:29 25.27796 -152.61781 36198 ft 422 kts 240°
2026-05-04 16:31 25.19777 -152.75318 36196 ft 422 kts 240°
2026-05-04 16:32 25.10112 -152.91581 36194 ft 422 kts 240°
2026-05-04 16:33 25.03673 -153.02386 36192 ft 423 kts 240°
2026-05-04 16:34 24.98820 -153.10512 36189 ft 423 kts 240°
2026-05-04 16:35 24.93946 -153.18561 36363 ft 423 kts 239°
2026-05-04 16:35 24.88971 -153.26592 36271 ft 423 kts 240°
2026-05-04 16:36 24.84234 -153.34780 36189 ft 423 kts 240°
2026-05-04 16:37 24.79396 -153.42918 36189 ft 424 kts 240°
2026-05-04 16:38 24.72900 -153.53690 36187 ft 424 kts 240°
2026-05-04 16:39 24.64749 -153.67185 36184 ft 424 kts 240°
2026-05-04 16:40 24.58240 -153.77937 36187 ft 424 kts 240°
2026-05-04 16:41 24.50086 -153.91373 36184 ft 424 kts 240°
2026-05-04 16:43 24.41894 -154.04834 36180 ft 424 kts 240°
2026-05-04 16:43 24.36976 -154.12897 36179 ft 424 kts 240°
2026-05-04 16:45 24.27131 -154.28967 36178 ft 424 kts 239°
2026-05-04 16:46 24.18886 -154.42295 36179 ft 424 kts 239°
2026-05-04 16:47 24.12267 -154.52970 36176 ft 424 kts 239°
2026-05-04 16:48 24.05660 -154.63605 36176 ft 424 kts 239°
2026-05-04 16:49 23.99027 -154.74258 36173 ft 424 kts 239°
2026-05-04 16:50 23.92406 -154.84869 36170 ft 424 kts 239°
2026-05-04 16:51 23.87423 -154.92841 36171 ft 424 kts 239°
2026-05-04 16:52 23.80789 -155.03433 36169 ft 423 kts 239°
2026-05-04 16:53 23.75802 -155.11381 36168 ft 423 kts 239°
2026-05-04 16:54 23.69167 -155.21937 36167 ft 423 kts 239°
2026-05-04 16:55 23.59170 -155.37799 36168 ft 423 kts 239°
2026-05-04 16:56 23.49783 -155.50078 36167 ft 434 kts 220°
2026-05-04 16:57 23.42204 -155.55563 36162 ft 437 kts 218°
2026-05-04 16:58 23.32107 -155.62828 36157 ft 436 kts 218°
2026-05-04 17:00 23.16928 -155.73754 36161 ft 436 kts 218°
2026-05-04 17:01 23.04308 -155.82816 36153 ft 436 kts 218°
2026-05-04 17:02 22.94197 -155.90062 36152 ft 437 kts 218°
2026-05-04 17:03 22.86591 -155.95504 36156 ft 437 kts 218°
2026-05-04 17:03 22.78980 -156.00943 36129 ft 437 kts 218°
2026-05-04 17:04 22.68855 -156.08166 36150 ft 437 kts 218°
2026-05-04 17:05 22.58686 -156.15408 36153 ft 437 kts 218°
2026-05-04 17:06 22.51094 -156.20806 36136 ft 437 kts 217°
2026-05-04 17:07 22.44309 -156.25624 36151 ft 438 kts 217°
2026-05-04 17:07 22.38354 -156.29848 36145 ft 438 kts 217°
2026-05-04 17:08 22.30741 -156.35243 36144 ft 438 kts 217°
2026-05-04 17:09 22.25906 -156.39167 36146 ft 431 kts 229°
2026-05-04 17:09 22.22044 -156.44075 36147 ft 429 kts 235°
2026-05-04 17:10 22.12884 -156.56773 36142 ft 430 kts 235°
2026-05-04 17:11 22.09207 -156.61863 36138 ft 430 kts 235°
2026-05-04 17:12 22.03692 -156.69487 36143 ft 430 kts 235°
2026-05-04 17:13 21.94557 -156.82093 35771 ft 427 kts 234°
2026-05-04 17:14 21.89093 -156.89619 34602 ft 424 kts 234°
2026-05-04 17:14 21.87287 -156.92104 34150 ft 420 kts 234°
2026-05-04 17:14 21.83694 -156.97008 33115 ft 414 kts 233°
2026-05-04 17:15 21.81888 -156.99357 32646 ft 412 kts 233°
2026-05-04 17:15 21.78239 -157.04055 31824 ft 406 kts 233°
2026-05-04 17:16 21.74631 -157.08698 30943 ft 404 kts 233°
2026-05-04 17:16 21.69200 -157.15686 28494 ft 408 kts 232°
2026-05-04 17:17 21.67399 -157.18003 27507 ft 411 kts 232°
2026-05-04 17:17 21.61864 -157.25113 24692 ft 415 kts 232°
2026-05-04 17:18 21.60008 -157.27495 23814 ft 416 kts 232°
2026-05-04 17:18 21.56299 -157.32251 21776 ft 415 kts 232°
2026-05-04 17:19 21.52602 -157.36988 19858 ft 412 kts 232°
2026-05-04 17:19 21.48968 -157.41641 17998 ft 407 kts 232°
2026-05-04 17:20 21.45348 -157.46272 16013 ft 401 kts 231°
2026-05-04 17:20 21.41798 -157.50811 14159 ft 393 kts 230°
2026-05-04 17:20 21.40045 -157.53050 13199 ft 389 kts 230°
2026-05-04 17:21 21.36711 -157.57304 12179 ft 359 kts 230°
2026-05-04 17:21 21.33612 -157.61256 11319 ft 332 kts 229°
2026-05-04 17:22 21.32166 -157.63099 11107 ft 314 kts 229°
2026-05-04 17:22 21.30794 -157.64846 10899 ft 298 kts 229°
2026-05-04 17:23 21.27122 -157.70043 10133 ft 291 kts 249°
2026-05-04 17:23 21.26765 -157.72129 10009 ft 289 kts 270°
2026-05-04 17:23 21.27178 -157.76428 9543 ft 290 kts 277°
2026-05-04 17:24 21.27449 -157.78565 9295 ft 289 kts 277°
2026-05-04 17:24 21.28220 -157.84925 8682 ft 286 kts 276°
2026-05-04 17:25 21.28469 -157.87041 8379 ft 285 kts 276°
2026-05-04 17:25 21.28955 -157.91199 7807 ft 282 kts 276°
2026-05-04 17:26 21.29439 -157.95362 7219 ft 281 kts 276°
2026-05-04 17:26 21.30156 -158.01555 6343 ft 277 kts 276°
2026-05-04 17:27 21.30627 -158.05635 5740 ft 276 kts 276°
2026-05-04 17:27 21.31096 -158.09708 5324 ft 275 kts 277°
2026-05-04 17:28 21.31568 -158.13817 5105 ft 279 kts 277°
2026-05-04 17:29 21.32285 -158.20057 4323 ft 282 kts 277°
2026-05-04 17:29 21.35029 -158.24703 3257 ft 259 kts 357°
2026-05-04 17:30 21.38257 -158.21758 2896 ft 209 kts 88°
2026-05-04 17:31 21.37498 -158.18880 2679 ft 199 kts 110°
2026-05-04 17:31 21.35862 -158.14815 2476 ft 197 kts 108°
2026-05-04 17:32 21.34802 -158.12122 2239 ft 197 kts 109°
2026-05-04 17:33 21.33252 -158.08180 2195 ft 178 kts 107°
2026-05-04 17:33 21.32796 -158.06985 2196 ft 169 kts 102°
2026-05-04 17:34 21.32527 -158.03329 1687 ft 158 kts 86°
2026-05-04 17:34 21.32528 -158.02155 1467 ft 162 kts 86°
2026-05-04 17:35 21.32525 -157.98505 808 ft 163 kts 87°
2026-05-04 17:35 21.32507 -157.96086 386 ft 162 kts 88°
2026-05-04 17:35 21.32511 -157.94884 182 ft 161 kts 86°
2026-05-04 17:36 21.32520 -157.93696 30 ft 156 kts 87°
2026-05-04 17:36 21.32525 -157.92792 28 ft 71 kts 90°
2026-05-04 17:36 21.32528 -157.92410 28 ft 43 kts 90°
2026-05-04 17:36 21.32601 -157.92184 28 ft 27 kts 59°
2026-05-04 17:37 21.32683 -157.92032 28 ft 18 kts 60°
2026-05-04 17:37 21.32751 -157.91937 27 ft 10 kts 19°
2026-05-04 17:37 21.32773 -157.91949 28 ft 1 kts 283°
2026-05-04 17:37 21.32774 -157.91984 28 ft 10 kts 272°
2026-05-04 17:38 21.32774 -157.92070 28 ft 12 kts 270°
2026-05-04 17:38 21.32775 -157.92155 28 ft 11 kts 270°
2026-05-04 17:38 21.32775 -157.92236 28 ft 11 kts 270°
2026-05-04 17:38 21.32775 -157.92316 28 ft 11 kts 270°
2026-05-04 17:39 21.32775 -157.92472 28 ft 10 kts 270°
2026-05-04 17:39 21.32784 -157.92518 28 ft 3 kts 319°
2026-05-04 17:39 21.32799 -157.92523 28 ft 5 kts 345°
2026-05-04 17:40 21.32844 -157.92525 28 ft 4 kts 359°
2026-05-04 17:40 21.32869 -157.92525 28 ft 1 kts 359°
2026-05-04 17:40 21.32878 -157.92526 28 ft 1 kts 359°
2026-05-04 17:40 21.32880 -157.92526 28 ft 0 kts 359°